{"data":{"norad_id":56077,"intl_designator":"2023-043AH","name":"ONEWEB-0636","alt_names":[],"object_type":"PAYLOAD","status":"ACTIVE","operator":null,"country":"UK","launch_date":"2023-03-26","launch_site_code":"SRILR","launch_vehicle":null,"mission":null,"orbit_class":"UNKNOWN","rcs_meters":null,"size_class":null,"mass_kg":null,"dimensions":null,"purposes":["comms"],"wikipedia_slug":null,"has_3d_model":false,"image_url":null,"decayed_at":null,"tle_current":{"epoch":"2026-05-25T02:10:49.973088Z","epoch_age_seconds":77791,"freshness":"FRESH","line1":"1 56077U 23043AH  26145.09085617  .00000116  00000+0  27366-3 0  9995","line2":"2 56077  87.8990 263.8000 0002104  96.8159 263.3211 13.15547564153370","mean_motion":13.15547564,"eccentricity":0.0002104,"inclination_deg":87.899,"raan_deg":263.8,"arg_perigee_deg":96.8159,"mean_anomaly_deg":263.3211,"bstar":0.00027366,"rev_number":15337,"period_min":109.46012439274,"perigee_km":1200.179741486,"apogee_km":1203.3693682683,"semimajor_km":7579.9115548772,"source":"CELESTRAK","updated_at":"2026-05-25T13:38:22.706896Z"}}}